Fairchild AFB, WA

3:27 PM PST on December 10, 2016 (GMT -0800)
Fairchild Air Force Base

Weather History for KSKA - March, 2014

Change the Weather History Date:

Saturday, March 22, 2014

  Actual Average Record
Temperature  
Mean Temperature 34 °F -  
Max Temperature 46 °F 48 °F 64 °F (2004)
Min Temperature 23 °F 30 °F 22 °F (2013)
Degree Days  
Heating Degree Days 30    
Moisture  
Dew Point 19 °F    
Average Humidity 52    
Maximum Humidity 80    
Minimum Humidity 31    
Precipitation  
Precipitation 0.00 in - - ()
Sea Level Pressure  
Sea Level Pressure 30.26 in    
Wind  
Wind Speed 5 mph (SE)    
Max Wind Speed 15 mph    
Max Gust Speed 18 mph    
Visibility 10 miles    
Events      
Averages and records for this station are not official NWS values.
T = Trace of Precipitation, MM = Missing Value Source: NWS Daily Summary

Daily Weather History Graph

Daily Weather History Graph

Search for Another Location

Airport or City:

Trip Planner

Search our weather history database for the weather conditions in past years. The results will help you decide how hot, cold, wet, or windy it might be!

Date:

Astronomy

Mar. 22, 2014 Rise Set
Actual Time 6:49 AM PDT 7:06 PM PDT
Civil Twilight 6:18 AM PDT 7:37 PM PDT
Nautical Twilight 5:42 AM PDT 8:13 PM PDT
Astronomical Twilight 5:04 AM PDT 8:51 PM PDT
Moon 12:50 AM PDT (3/22) 10:16 AM PDT (3/22)
Length of Visible Light 13h 18m
Length of Day
12h 17m
Waning Gibbous, 64% of the Moon is Illuminated
Mar 22
Waning Gibbous
Mar 23
Last Quarter
Mar 30
New
Apr 7
First Quarter
Apr 15
Full

Hourly Weather History & Observations

Time (PDT) Temp. Windchill Dew Point Humidity Pressure Visibility Wind Dir Wind Speed Gust Speed Precip Events Conditions
12:05 AM 32.0 °F - 14.0 °F 48% 30.22 in 10.0 mi Calm Calm - N/A   Clear
12:30 AM 32.0 °F - 14.0 °F 48% 30.22 in 10.0 mi SSE 1.2 mph - N/A   Clear
12:58 AM 28.6 °F - 18.5 °F 66% 30.29 in 10.0 mi Calm Calm - 0.00 in   Clear
1:58 AM 28.2 °F 24.4 °F 15.3 °F 58% 30.30 in 10.0 mi North 3.5 mph - N/A   Clear
2:53 AM 28.4 °F - 15.8 °F 59% 30.23 in 10.0 mi NE 2.3 mph - N/A   Clear
2:58 AM 27.7 °F 23.8 °F 15.1 °F 59% 30.29 in 10.0 mi NE 3.5 mph - 0.00 in   Clear
3:03 AM 28.4 °F 24.6 °F 15.8 °F 59% 30.23 in 10.0 mi NE 3.5 mph - N/A   Clear
3:58 AM 26.8 °F 21.4 °F 16.7 °F 66% 30.31 in 10.0 mi NE 4.6 mph - 0.00 in   Clear
4:58 AM 25.0 °F 18.1 °F 17.6 °F 74% 30.32 in 10.0 mi NE 5.8 mph - N/A   Clear
5:58 AM 23.2 °F 18.7 °F 17.4 °F 79% 30.33 in 10.0 mi NE 3.5 mph - N/A   Clear
6:58 AM 23.5 °F 17.6 °F 17.1 °F 76% 30.35 in 10.0 mi NNE 4.6 mph - N/A   Clear
7:25 AM 24.8 °F 19.1 °F 19.4 °F 80% 30.27 in 10.0 mi NE 4.6 mph - N/A   Clear
7:58 AM 27.0 °F 20.5 °F 21.2 °F 79% 30.35 in 10.0 mi ENE 5.8 mph - 0.00 in   Clear
8:06 AM 26.6 °F 20.0 °F 21.2 °F 80% 30.27 in 10.0 mi ENE 5.8 mph - N/A   Clear
8:45 AM 30.2 °F 22.6 °F 23.0 °F 75% 30.27 in 10.0 mi East 8.1 mph - N/A   Clear
8:48 AM 30.2 °F 22.6 °F 23.0 °F 75% 30.27 in 10.0 mi East 8.1 mph - N/A   Clear
8:58 AM 30.6 °F 23.1 °F 23.4 °F 75% 30.35 in 10.0 mi East 8.1 mph - 0.00 in   Clear
9:54 AM 33.8 °F 27.7 °F 23.0 °F 65% 30.27 in 10.0 mi ESE 6.9 mph - N/A   Clear
9:58 AM 34.7 °F 28.1 °F 23.4 °F 63% 30.35 in 10.0 mi East 8.1 mph - 0.00 in   Clear
10:11 AM 35.6 °F 29.2 °F 23.0 °F 60% 30.28 in 10.0 mi East 8.1 mph - N/A   Clear
10:30 AM 37.4 °F 32.8 °F 23.0 °F 56% 30.28 in 10.0 mi East 5.8 mph - N/A   Clear
10:37 AM 37.4 °F 32.1 °F 23.0 °F 56% 30.27 in 10.0 mi Variable 6.9 mph - N/A   Clear
10:58 AM 38.5 °F 34.1 °F 22.8 °F 53% 30.34 in 10.0 mi SE 5.8 mph - 0.00 in   Clear
11:05 AM 39.2 °F 35.0 °F 23.0 °F 52% 30.27 in 10.0 mi East 5.8 mph - N/A   Clear
11:10 AM 41.0 °F 37.1 °F 23.0 °F 49% 30.27 in 10.0 mi Variable 5.8 mph - N/A   Clear
11:51 AM 42.8 °F 37.0 °F 19.4 °F 39% 30.26 in 10.0 mi South 10.4 mph - N/A   Scattered Clouds
11:58 AM 42.4 °F 40.7 °F 19.2 °F 39% 30.32 in 10.0 mi SSW 3.5 mph - 0.00 in   Partly Cloudy
12:01 PM 42.8 °F 40.1 °F 19.4 °F 39% 30.26 in 10.0 mi Variable 4.6 mph - N/A   Scattered Clouds
12:11 PM 42.8 °F 38.0 °F 19.4 °F 39% 30.26 in 10.0 mi SSW 8.1 mph - N/A   Partly Cloudy
12:30 PM 42.8 °F 35.8 °F 17.6 °F 36% 30.25 in 10.0 mi South 13.8 mph - N/A   Partly Cloudy
12:39 PM 44.6 °F 41.4 °F 17.6 °F 34% 30.25 in 10.0 mi SSW 5.8 mph - N/A   Partly Cloudy
12:43 PM 44.6 °F 38.8 °F 17.6 °F 34% 30.25 in 10.0 mi South 11.5 mph - N/A   Partly Cloudy
12:53 PM 44.6 °F 41.4 °F 17.6 °F 34% 30.24 in 10.0 mi South 5.8 mph - N/A   Partly Cloudy
12:58 PM 44.2 °F 39.7 °F 18.7 °F 36% 30.30 in 10.0 mi SW 8.1 mph - 0.00 in   Clear
1:56 PM 44.6 °F 38.1 °F 15.8 °F 31% 30.22 in 10.0 mi SSW 13.8 mph - N/A   Clear
1:58 PM 45.3 °F 39.0 °F 16.9 °F 32% 30.28 in 10.0 mi SW 13.8 mph - N/A   Clear
2:58 PM 46.6 °F - 18.3 °F 32% 30.26 in 10.0 mi SSW 12.7 mph - N/A   Clear
3:58 PM 46.2 °F 39.8 °F 17.8 °F 32% 30.24 in 10.0 mi SSW 15.0 mph 18.4 mph N/A   Scattered Clouds
4:10 PM 46.4 °F 40.4 °F 17.6 °F 32% 30.18 in 10.0 mi SW 13.8 mph - N/A   Mostly Cloudy
4:58 PM 45.0 °F 39.3 °F 18.3 °F 35% 30.24 in 10.0 mi SW 11.5 mph - N/A   Partly Cloudy
5:58 PM 43.9 °F 38.3 °F 19.8 °F 38% 30.22 in 10.0 mi SSW 10.4 mph - N/A   Overcast
6:58 PM 42.6 °F 38.4 °F 20.7 °F 42% 30.20 in 10.0 mi SSW 6.9 mph - N/A   Overcast
7:58 PM 40.8 °F 36.9 °F 22.3 °F 48% 30.19 in 10.0 mi South 5.8 mph - N/A   Mostly Cloudy
8:58 PM 39.7 °F - 22.6 °F 50% 30.19 in 10.0 mi South 2.3 mph - N/A   Scattered Clouds
9:49 PM 41.0 °F - 19.4 °F 42% 30.11 in 10.0 mi South 2.3 mph - N/A   Overcast
9:58 PM 40.5 °F - 20.3 °F 45% 30.17 in 10.0 mi Calm Calm - 0.00 in   Mostly Cloudy
10:08 PM 41.0 °F - 19.4 °F 42% 30.11 in 10.0 mi Calm Calm - N/A   Mostly Cloudy
10:58 PM 39.4 °F 37.2 °F 20.8 °F 47% 30.17 in 10.0 mi SSW 3.5 mph - 0.00 in   Overcast
11:58 PM 38.7 °F 36.3 °F 22.6 °F 53% 30.16 in 10.0 mi SSW 3.5 mph - N/A   Overcast